Wind_Speed
26 26 27 26 25 23 22 22 23 23 22 21 19 18 18 17 14 12 9 8 8 7 7 8 8 9 11 12 13 15 14 11 11 9 5 3 7 5 4 2 3 3 2 4 8 9 7 9 9 10 9 8 7 6 9 9 6 6 5 6 6 7 7 8 10 6 5 5 3 6 5 7 7 6 7 9 12 11 19 20 17 16 14 13 14 18 19 18
26 27 27 27 25 23 22 22 22 23 23 21 19 18 18 17 14 11 8 7 7 7 7 7 9 10 12 13 14 15 14 12 13 4 6 6 6 6 5 4 3 2 3 7 9 9 8 8 7 9 8 6 7 7 9 6 6 6 5 6 6 7 10 7 9 5 2 7 6 8 7 6 2 7 3 5 8 9 14 16 17 16 14 13 14 18 19 18
27 27 27 27 25 23 22 21 22 23 23 22 20 19 19 18 14 10 7 6 6 6 7 7 8 10 13 13 13 13 11 12 10 4 9 5 5 4 4 4 4 4 6 10 13 14 11 8 6 8 7 6 7 8 8 5 6 7 6 6 6 9 12 4 5 6 4 8 9 10 8 2 8 7 2 3 7 9 10 12 16 14 13 11 12 17 18 19
27 27 27 26 25 23 21 21 22 23 23 22 20 20 20 18 13 8 6 5 5 5 6 7 8 11 13 13 12 10 9 11 2 9 6 3 4 4 4 4 5 5 8 13 15 13 9 10 7 7 8 7 7 8 7 5 5 6 6 7 8 9 10 3 4 6 5 8 10 13 6 8 13 9 4 1 5 8 8 9 16 17 15 11 9 10 12 15
28 28 27 26 25 23 21 21 21 22 23 22 21 21 20 17 12 7 5 4 4 5 6 7 9 11 13 13 12 9 8 5 5 8 5 4 3 4 4 4 4 4 8 14 14 8 5 9 8 6 7 7 7 7 6 7 7 5 6 9 10 9 9 5 6 6 3 6 12 13 4 11 11 6 9 9 4 4 8 11 16 20 17 12 10 6 7 11
29 29 27 26 25 23 21 21 21 21 22 21 21 21 18 15 11 6 4 3 4 4 6 7 9 12 13 14 12 7 7 1 6 6 5 3 4 3 4 3 3 4 7 14 13 6 6 8 6 6 6 8 9 7 7 9 7 5 6 8 9 9 8 4 5 2 3 8 12 5 3 7 10 6 8 11 9 9 9 12 14 18 17 12 11 6 5 9
29 29 27 26 24 22 21 20 20 21 20 20 21 20 17 13 10 5 3 3 4 5 6 8 10 13 14 14 10 7 7 3 7 6 4 2 3 3 4 4 5 7 9 15 12 5 6 7 7 7 6 8 9 8 9 10 7 5 7 7 7 11 9 2 4 4 2 9 10 4 2 6 11 7 7 10 8 9 10 8 13 19 18 10 8 7 4 8
29 28 28 26 24 21 20 20 20 20 19 19 21 19 15 12 9 4 3 3 4 6 7 9 11 13 15 12 7 8 3 7 9 6 2 3 4 5 7 11 11 13 15 13 8 5 5 6 8 7 8 8 6 8 8 7 6 4 11 10 7 12 11 4 4 7 6 8 8 8 4 11 13 5 7 7 7 7 7 8 13 20 18 8 4 6 1 4
28 28 28 27 24 21 19 19 19 19 18 19 20 17 13 10 7 4 4 4 5 7 7 10 12 14 15 8 8 6 4 8 7 5 1 2 4 6 9 12 10 14 14 5 4 7 3 4 8 4 8 7 6 7 4 3 6 6 14 12 5 10 11 8 7 8 8 7 7 9 3 14 13 8 7 6 7 5 4 10 12 17 18 10 5 4 0 2
28 28 28 27 24 21 19 19 19 19 18 18 19 16 11 9 6 5 5 5 6 7 8 10 12 14 12 7 9 4 5 4 5 5 2 2 4 6 9 8 6 10 7 2 4 7 3 5 6 5 8 6 6 7 2 4 6 4 11 9 7 8 7 9 9 9 9 7 8 10 2 13 13 8 4 6 9 4 4 11 10 14 18 13 10 6 4 3
28 27 28 27 24 21 19 18 19 18 17 18 19 15 11 8 6 5 6 6 7 9 10 11 12 13 11 11 8 2 2 2 3 4 2 2 5 6 8 5 5 10 8 4 4 3 6 9 7 4 5 4 4 6 4 6 4 4 10 7 7 10 10 11 10 9 8 6 9 10 3 13 12 7 7 9 10 7 6 9 8 11 16 14 12 8 6 5
27 27 27 26 23 20 18 18 18 17 17 17 17 15 10 6 5 6 7 8 8 10 12 13 13 12 10 10 3 5 1 1 1 2 3 3 7 5 5 4 6 9 9 9 4 2 6 8 7 7 5 5 5 4 3 5 2 5 10 8 9 11 12 12 9 9 8 8 9 6 6 9 11 8 11 12 11 10 9 9 9 11 12 11 11 8 5 10
27 27 27 26 23 20 18 19 18 17 17 17 17 14 8 4 5 6 7 8 9 11 13 14 14 11 9 5 5 3 2 1 1 2 2 4 7 5 3 4 6 7 7 9 8 4 5 7 8 9 8 9 6 3 2 3 3 8 9 7 10 9 10 11 10 11 11 8 4 2 6 3 11 12 11 11 11 12 11 10 10 9 8 7 7 6 5 10
27 26 26 25 22 19 18 18 18 16 16 17 16 12 7 6 7 8 8 8 9 11 12 15 15 10 7 1 7 2 2 2 4 5 5 5 6 7 5 3 5 6 5 7 8 6 5 8 9 8 9 8 7 5 3 5 5 8 9 7 8 7 8 11 12 12 11 5 1 2 6 3 12 13 12 11 11 12 11 10 10 8 7 6 4 4 5 9
26 26 25 25 22 19 18 18 17 16 16 17 16 12 7 8 9 8 8 8 9 11 13 16 14 8 6 2 6 5 5 7 5 4 3 4 7 8 6 4 5 5 5 6 7 6 6 8 8 8 8 5 6 8 6 6 6 6 8 7 7 7 8 10 13 12 10 6 6 6 7 3 12 14 13 12 11 11 10 8 8 8 6 5 4 4 4 7
25 25 24 24 21 19 17 17 16 16 17 17 16 10 6 7 8 9 9 10 11 12 12 12 11 11 6 1 7 6 7 7 2 1 2 4 8 8 2 4 6 5 5 6 5 5 6 8 7 8 8 5 6 7 5 6 6 6 7 6 7 7 7 7 8 10 9 7 7 9 7 5 9 14 13 14 13 11 9 7 8 7 6 5 3 3 4 6
24 24 24 23 21 19 17 16 14 15 17 17 15 8 5 7 9 9 10 12 13 13 11 13 14 11 4 2 5 5 4 3 1 2 2 1 6 8 4 6 8 7 7 5 4 6 7 6 6 6 5 6 6 6 6 6 5 5 6 7 7 7 7 5 5 8 9 8 9 10 8 6 8 15 13 14 15 12 10 8 8 8 7 5 3 3 6 7
23 23 24 23 22 20 17 16 13 14 17 16 14 9 6 8 10 11 12 12 10 10 11 14 14 7 2 2 3 1 1 3 2 2 3 1 3 5 5 6 6 5 7 6 5 7 7 5 6 5 5 6 5 7 7 5 6 5 4 5 7 7 8 7 4 7 11 10 11 11 9 7 8 17 14 13 14 13 12 10 8 8 6 5 5 7 8 7
22 22 23 23 22 20 17 15 11 13 16 14 13 13 10 9 10 11 13 11 7 7 6 4 6 4 2 2 0 1 2 3 1 4 4 2 3 6 7 6 5 5 6 6 7 7 5 4 6 5 6 6 4 9 5 5 7 7 6 7 7 7 7 7 8 7 8 7 9 10 9 10 8 14 18 16 14 13 13 12 9 8 7 6 6 6 8 7
22 21 22 22 22 20 17 14 11 12 14 15 18 15 8 6 5 5 7 11 10 8 7 3 4 5 1 1 2 3 3 3 6 6 2 2 4 7 9 9 7 6 7 6 5 3 2 5 6 4 5 4 8 8 2 7 9 8 8 9 6 6 7 7 9 7 3 3 8 9 9 12 12 10 16 20 17 15 16 14 11 10 8 7 6 6 7 7
22 21 21 22 21 20 16 12 11 11 12 16 19 11 4 6 4 3 5 9 10 7 8 7 5 7 4 2 4 2 5 8 6 3 1 2 6 7 6 8 8 7 4 2 1 1 2 5 7 5 5 6 10 10 8 8 9 8 8 8 7 7 7 7 6 5 4 3 6 9 12 12 13 13 10 18 19 16 18 16 14 14 11 9 8 7 7 7
22 20 20 21 21 20 15 9 8 9 12 14 13 6 8 10 7 7 6 8 10 8 7 5 5 5 1 3 5 4 7 8 5 5 3 3 8 7 4 6 8 4 1 2 2 3 4 5 7 6 8 9 9 8 9 10 9 8 8 6 7 8 7 8 7 6 6 3 5 10 12 11 13 16 12 13 18 16 17 17 15 15 12 10 8 7 5 6
21 20 20 20 20 19 13 7 6 7 11 12 7 7 10 10 9 9 6 6 10 8 9 6 6 7 5 4 4 5 9 7 4 7 5 4 8 5 5 7 6 2 2 6 5 3 4 3 4 7 7 8 9 5 5 7 7 7 7 6 7 8 7 7 7 7 8 7 9 12 11 9 12 13 14 12 13 17 17 17 16 15 13 11 10 6 3 3
21 20 20 20 20 18 12 7 5 6 9 9 6 9 9 10 10 11 6 5 8 6 8 8 7 9 5 3 4 8 9 5 2 4 7 5 7 3 5 6 5 3 4 4 4 5 6 2 5 5 5 6 8 6 6 5 6 7 8 8 7 8 10 8 7 10 10 9 10 12 11 8 10 13 14 9 10 17 16 16 14 11 12 10 8 9 6 4
21 19 19 20 20 17 11 8 5 6 9 7 5 8 10 10 10 11 6 5 7 5 6 7 6 6 1 5 4 7 8 5 2 3 4 4 6 4 4 3 4 5 6 3 2 6 4 6 4 5 5 5 7 7 6 5 5 5 7 8 8 9 11 10 9 10 8 7 8 9 9 6 8 13 12 5 10 18 14 13 13 7 8 8 5 8 9 8
21 19 18 18 20 18 10 5 6 11 11 5 7 9 10 9 9 10 5 5 5 4 6 6 6 4 3 5 6 7 8 6 4 3 1 3 4 6 6 2 6 4 7 5 2 6 2 5 1 6 6 6 7 5 7 6 5 5 4 3 8 12 12 10 8 8 7 7 7 8 8 7 8 10 10 10 3 15 14 10 9 5 4 4 5 5 5 7
21 20 18 16 19 18 9 6 11 14 9 5 8 10 9 9 9 8 3 4 4 4 5 4 5 4 4 6 8 7 3 3 5 4 3 2 3 6 7 6 5 1 2 3 3 1 2 4 5 6 5 6 6 5 7 5 3 7 7 5 8 11 11 11 8 8 8 8 9 10 10 8 8 9 9 13 11 11 16 13 12 8 4 7 5 6 3 5
19 19 19 15 14 13 9 11 15 12 7 9 10 10 9 10 9 5 4 4 2 3 4 4 4 2 4 5 8 9 4 2 5 5 6 5 4 5 7 7 7 2 1 3 4 2 4 8 4 1 4 5 5 6 6 6 5 6 8 11 12 10 8 10 9 9 8 8 8 9 11 9 7 8 8 11 13 7 14 14 13 12 12 13 9 9 7 5
18 17 17 17 11 7 10 13 13 10 9 11 10 10 10 10 7 3 4 4 2 3 1 3 4 4 7 6 8 8 6 5 5 2 6 5 4 5 7 7 9 7 2 4 8 3 2 5 6 6 4 5 6 7 8 11 8 3 6 11 12 10 9 9 9 9 8 8 9 10 10 8 6 8 7 7 9 2 8 9 8 8 10 12 13 13 12 9
17 15 15 16 11 8 12 12 11 10 10 10 11 12 11 8 4 4 4 3 2 3 4 3 3 6 8 8 8 8 8 8 5 3 5 5 5 6 6 6 6 8 5 6 9 9 6 4 2 4 6 7 10 10 9 11 11 9 8 10 10 9 9 8 7 8 7 6 8 12 12 10 9 7 5 6 5 2 5 7 8 8 8 7 9 12 13 13
16 14 14 14 11 10 11 8 5 8 9 10 12 11 8 4 3 4 3 1 1 2 5 4 4 6 9 9 8 8 9 9 7 6 5 4 6 6 5 5 5 5 6 6 7 10 10 7 6 5 5 4 8 8 9 10 10 8 7 7 8 7 7 7 6 6 6 6 7 10 10 10 9 5 6 7 6 5 4 8 9 10 11 9 8 11 13 12
15 14 13 13 12 12 12 8 10 12 10 11 11 7 5 3 5 6 4 3 2 2 2 3 5 7 9 9 8 8 10 9 6 6 6 6 6 7 5 4 3 4 4 4 3 5 6 7 7 4 7 4 5 6 7 9 9 7 7 6 6 6 5 5 6 5 6 6 6 9 8 7 7 5 10 10 9 8 5 8 9 9 11 11 11 12 12 11
14 15 15 12 11 13 13 12 12 11 10 10 7 4 4 4 5 6 5 4 2 3 1 3 4 6 8 8 9 8 8 6 3 6 7 7 7 7 8 9 7 4 3 3 4 4 4 8 10 9 6 5 1 5 5 4 4 5 6 5 5 6 5 6 6 5 7 5 4 10 10 7 6 3 8 10 4 8 7 6 9 12 12 11 12 12 11 11
14 14 13 10 11 13 11 9 9 9 9 7 5 4 5 6 5 7 8 5 2 4 3 4 5 7 8 8 8 6 5 6 5 5 5 6 7 7 7 9 7 3 3 5 5 5 6 5 5 7 3 5 2 6 5 5 6 6 6 6 5 6 5 6 5 4 7 6 5 7 6 5 4 2 3 6 6 1 6 6 5 10 13 11 10 11 10 10
14 11 9 8 10 10 7 7 8 7 6 5 4 5 6 6 6 7 6 2 1 2 3 4 5 7 8 8 8 6 4 4 5 6 6 6 6 6 6 7 5 3 4 6 3 3 7 6 2 1 2 4 5 8 5 5 6 5 6 6 6 5 4 5 7 7 8 7 6 7 5 4 3 5 4 1 3 1 3 5 3 5 9 8 7 8 9 10
14 9 7 9 9 5 4 6 7 5 5 5 5 6 7 6 7 6 4 2 1 3 5 5 6 7 7 6 8 8 4 3 4 4 7 7 7 8 8 6 5 4 4 6 3 3 6 3 3 3 3 6 8 8 5 5 4 2 4 5 4 4 5 5 6 6 6 6 6 5 6 7 4 5 1 3 4 5 4 5 5 4 6 6 6 6 9 11
15 10 9 10 6 5 5 5 5 6 5 5 6 7 7 7 10 9 4 4 4 4 5 5 4 6 7 5 6 7 6 4 5 4 5 6 5 8 9 8 6 5 6 7 4 4 6 4 3 5 8 7 5 4 6 7 7 5 4 3 3 4 6 5 5 5 5 7 5 6 8 6 4 2 3 7 3 6 7 8 8 7 8 9 8 7 8 9
14 10 9 8 3 5 4 5 6 6 5 5 7 8 8 9 12 12 5 5 4 5 6 6 4 5 7 5 4 7 6 4 6 5 6 6 3 2 7 8 5 4 6 7 3 3 3 4 6 7 8 3 5 2 7 9 10 10 7 4 3 4 4 3 4 4 5 7 5 7 9 5 2 2 1 4 4 2 5 7 5 6 8 8 8 8 10 9
11 8 4 4 4 3 4 6 6 6 5 6 8 6 7 10 12 14 10 2 2 7 7 8 7 5 7 7 6 7 7 7 7 5 4 5 2 2 4 7 5 4 7 8 5 4 3 4 6 4 4 2 2 4 6 6 9 9 7 7 5 5 5 4 4 3 4 6 6 7 7 3 1 1 2 3 3 2 6 5 3 5 5 2 3 5 8 9
8 5 2 6 4 4 6 7 6 5 5 7 8 6 8 9 10 12 10 1 1 5 7 8 9 7 8 8 8 8 7 7 7 6 4 4 4 4 4 6 7 5 6 7 7 6 4 4 5 4 3 2 4 5 5 6 6 6 5 6 5 4 5 4 4 5 5 5 6 6 5 1 3 3 3 3 2 4 6 6 5 5 5 5 4 5 6 6
6 4 2 5 4 6 7 5 5 5 6 7 8 10 10 8 10 12 9 4 3 5 8 10 10 9 9 8 8 7 6 6 7 7 6 6 6 5 3 5 10 6 7 7 7 6 5 4 5 7 5 4 7 8 8 8 5 4 5 5 5 5 4 4 5 6 5 5 6 6 6 3 3 4 5 5 5 5 6 7 7 7 7 7 5 4 3 2
5 3 4 7 6 7 6 5 5 5 6 7 9 11 6 3 7 12 11 10 9 7 8 9 10 9 8 9 8 7 7 7 8 7 6 7 7 5 5 7 10 8 5 5 5 4 3 4 6 8 7 9 12 8 6 8 9 7 7 6 6 6 4 4 5 5 4 5 5 5 5 2 3 5 4 3 3 4 5 6 6 6 6 6 6 5 3 3
5 1 6 9 8 7 6 5 6 6 7 9 12 13 7 5 7 8 8 10 10 9 8 7 9 10 8 8 9 9 9 7 9 10 7 8 9 8 10 11 8 8 6 5 5 2 1 2 6 8 7 11 14 8 6 6 9 8 8 8 7 7 7 7 7 6 5 6 6 5 5 3 3 3 3 2 3 5 7 6 6 5 4 5 7 6 5 2
4 4 4 8 8 7 6 6 6 6 8 11 13 12 11 9 9 9 9 9 7 8 8 8 9 9 7 8 9 10 10 6 8 10 8 8 8 7 11 10 6 5 7 4 1 1 1 4 5 7 7 7 9 8 6 7 7 6 7 9 9 11 11 10 8 6 6 8 9 7 6 3 4 3 3 4 4 5 6 4 3 4 4 4 5 7 9 6
4 5 3 7 9 7 6 6 7 7 8 11 12 11 11 10 9 11 11 10 9 10 9 9 10 10 8 9 9 10 10 8 7 8 8 9 7 7 10 6 6 7 8 2 6 6 2 4 4 6 7 6 7 5 2 3 4 5 8 10 11 13 12 9 7 6 6 8 9 8 7 3 5 5 3 1 1 4 5 4 5 7 5 1 3 4 7 10
3 3 3 4 7 7 6 6 8 9 9 9 9 10 11 10 9 10 11 10 10 11 11 10 11 11 10 10 11 11 11 11 10 8 8 9 6 7 10 8 9 9 3 4 2 3 4 4 7 9 9 9 10 6 3 5 7 7 8 10 11 11 12 8 6 7 7 8 8 8 9 7 4 4 2 2 2 3 5 5 7 8 4 1 2 3 3 8
2 3 4 1 3 5 6 6 8 8 8 8 7 7 11 12 10 9 10 9 9 10 10 10 11 11 11 11 10 10 10 12 13 12 11 10 9 10 11 12 12 6 8 5 4 4 4 7 9 13 13 13 16 15 13 12 11 10 11 12 12 11 12 10 8 10 9 8 8 8 10 10 7 6 6 2 2 4 6 6 6 6 3 1 1 1 2 8
4 3 2 2 2 5 5 6 8 8 10 10 8 8 12 13 12 10 8 9 10 9 7 8 11 14 14 13 9 8 10 11 12 12 13 12 11 10 10 13 11 4 5 7 8 4 5 9 9 12 15 16 17 17 17 15 13 13 13 14 14 14 14 12 12 13 11 10 10 10 12 13 10 9 10 8 5 5 7 6 6 5 5 5 6 6 5 9
3 4 2 2 4 7 8 10 12 13 13 11 8 8 11 12 13 12 9 9 10 9 8 8 12 14 14 14 12 11 10 10 9 10 10 10 11 8 6 10 10 5 4 9 8 5 6 7 9 12 14 16 17 17 17 17 15 15 15 15 15 15 16 16 14 15 15 15 14 14 16 15 11 11 12 10 7 6 6 5 5 6 7 8 10 10 10 10
3 4 4 4 5 7 8 9 10 10 11 10 8 9 11 13 14 13 11 11 10 10 10 11 13 14 15 15 14 13 14 12 11 10 9 7 7 6 4 5 7 7 8 9 6 4 5 6 8 9 10 13 16 16 17 16 15 16 18 17 17 16 16 16 15 14 14 15 16 16 16 13 9 10 10 9 7 6 6 6 5 5 6 7 8 9 10 12
5 5 4 5 5 6 7 8 8 9 9 8 9 10 11 13 15 14 12 13 13 12 12 13 14 13 13 14 15 15 15 10 7 8 9 8 6 5 5 5 6 8 8 8 6 5 5 6 7 7 8 10 12 15 16 14 14 17 19 18 19 17 14 13 13 13 13 13 14 14 13 9 8 7 6 6 6 6 7 7 5 5 7 8 8 8 9 9
5 5 4 5 5 6 6 8 9 9 8 8 10 12 13 14 15 14 11 11 13 14 13 13 13 11 11 14 14 12 9 7 6 8 8 9 9 7 7 8 10 9 7 6 7 6 7 7 6 7 7 9 12 14 13 11 12 12 12 13 16 16 14 14 14 14 14 13 10 10 9 8 8 8 6 7 8 8 7 6 5 6 7 6 7 8 8 8
Wind_Direction
357 356 354 353 352 350 350 349 349 349 352 356 359 357 354 352 345 334 327 319 322 320 315 319 317 320 322 321 326 321 312 305 284 254 222 24 32 40 31 20 330 302 268 279 263 262 248 227 231 232 229 231 235 240 246 236 232 243 232 249 262 255 248 255 254 238 284 303 358 305 306 281 261 99 83 88 91 96 88 84 89 91 102 114 124 133 141 146
356 354 351 351 350 348 348 347 346 345 348 351 354 354 352 350 343 331 317 309 312 310 310 312 314 320 318 320 328 324 323 304 275 264 80 54 45 45 30 24 343 311 284 282 274 269 249 225 214 219 226 228 223 223 240 218 199 247 249 240 250 255 253 257 275 272 289 309 332 311 293 278 338 69 31 71 103 119 104 100 96 97 114 123 129 138 143 141
354 352 350 349 349 348 347 346 344 343 345 347 350 351 349 347 343 329 304 302 303 299 302 305 314 316 314 322 328 329 326 292 267 93 78 54 45 27 1 359 327 306 285 280 287 286 277 271 240 213 227 232 227 217 225 199 177 230 245 250 249 252 263 279 315 309 309 316 322 299 282 320 30 62 141 111 132 136 120 115 108 115 128 135 146 146 146 141
353 351 350 350 350 348 347 345 343 343 343 345 347 348 349 346 343 329 297 291 291 292 296 304 312 310 316 323 325 329 307 280 279 87 81 38 28 346 343 338 307 294 281 281 285 288 290 288 265 217 229 236 227 220 223 201 179 217 224 246 258 259 273 284 264 270 300 324 310 292 296 65 44 40 53 324 188 136 119 117 117 132 136 139 146 139 147 142
353 352 352 352 351 349 347 345 343 343 344 345 346 347 348 345 344 329 291 282 287 290 293 302 307 310 319 320 327 329 294 281 90 87 72 38 9 336 334 311 297 277 272 282 280 274 268 268 265 232 236 252 233 219 235 223 203 233 245 247 258 268 274 256 236 256 334 310 281 289 335 88 82 53 25 11 345 60 104 111 113 131 140 144 133 130 164 136
352 353 354 353 351 349 346 345 343 343 345 346 347 349 349 347 346 327 291 284 283 286 295 304 306 314 322 323 332 310 278 10 97 93 69 34 352 338 314 298 273 243 259 280 275 255 247 253 253 232 227 256 247 221 231 231 215 238 261 251 258 275 275 251 250 295 36 276 273 308 35 101 104 93 48 42 28 26 70 105 113 124 133 138 126 143 193 123
352 352 354 353 351 349 346 345 343 345 347 347 349 350 350 349 347 328 297 288 286 292 298 306 307 318 326 327 329 270 252 75 100 94 64 21 344 325 310 300 253 243 257 268 268 241 233 241 238 233 230 246 251 234 225 227 216 226 262 257 250 272 286 298 302 331 347 267 278 305 263 114 99 94 73 60 47 41 45 75 101 109 115 118 126 168 199 109
352 352 353 353 351 349 347 345 344 346 347 349 351 351 351 351 348 327 307 293 291 297 301 311 312 321 327 328 310 261 241 80 101 108 39 353 328 305 304 295 262 247 254 261 275 264 237 244 238 233 239 244 262 242 214 221 219 212 254 251 219 245 264 276 288 299 296 273 273 273 262 99 102 112 90 75 62 61 53 67 92 104 109 107 138 171 178 102
351 353 353 353 351 348 346 345 344 346 348 352 353 352 351 352 349 331 310 294 292 299 306 311 313 322 328 321 282 280 74 82 101 123 152 307 304 292 286 292 274 253 252 240 280 269 233 244 251 263 273 283 297 258 164 193 231 207 240 253 246 235 241 250 257 266 268 261 261 265 209 110 121 137 112 111 95 71 81 88 92 104 109 109 111 121 254 265
351 353 353 353 351 348 347 345 344 345 348 352 354 352 347 349 350 331 308 293 295 300 306 309 314 323 321 286 274 303 94 115 123 132 178 267 280 286 283 295 312 291 283 188 256 282 305 295 299 326 296 296 291 275 133 215 252 236 244 260 280 273 258 247 251 260 271 273 271 280 217 125 144 169 136 121 114 116 108 95 95 104 108 109 106 121 178 244
350 353 354 354 351 348 346 345 345 344 347 352 355 350 341 343 345 327 310 299 301 303 306 307 309 318 305 279 289 26 129 215 123 142 171 262 265 286 308 319 315 310 318 286 257 305 311 313 323 284 277 333 295 268 241 248 298 291 266 275 257 266 269 246 241 253 272 274 258 274 238 141 159 183 129 125 133 141 120 102 103 100 102 113 126 150 168 134
350 352 355 355 352 348 344 344 344 342 345 350 353 349 335 338 350 338 317 304 304 304 304 302 307 320 301 280 322 68 303 238 94 251 182 221 260 275 317 310 294 306 315 311 349 36 294 307 299 264 279 325 287 260 249 262 318 264 265 284 259 249 254 245 242 249 249 254 244 246 241 171 157 148 124 128 138 140 129 110 97 85 90 113 133 145 158 134
350 353 355 356 353 348 344 343 342 339 342 346 349 346 323 314 346 344 321 305 302 301 301 302 308 313 292 297 66 71 291 151 126 282 222 236 260 253 261 290 293 296 300 311 339 343 294 294 281 279 288 281 282 346 340 276 256 253 251 260 263 249 242 238 238 248 241 248 261 223 255 182 128 133 136 134 136 137 132 117 102 95 100 110 117 133 167 140
350 352 354 356 354 349 344 341 339 336 337 341 344 338 304 282 307 320 313 301 295 298 299 300 304 297 275 339 79 91 241 214 202 205 209 227 250 244 222 230 262 266 285 296 302 299 285 286 276 275 277 272 302 332 271 250 235 248 248 234 255 257 242 226 214 235 241 222 130 258 269 158 132 142 147 144 143 138 127 120 111 110 119 115 123 169 173 141
350 352 354 356 354 349 344 340 337 332 333 338 339 332 296 273 290 300 295 290 287 293 300 300 295 274 257 182 111 108 166 218 231 202 232 248 260 260 213 215 254 249 275 275 276 290 270 269 264 264 264 238 276 286 247 240 222 229 247 229 233 249 260 235 198 208 236 217 176 218 272 206 144 145 148 146 141 129 120 119 113 116 132 128 133 159 138 132
349 350 353 356 354 349 344 340 336 331 330 335 337 327 281 270 285 287 281 277 281 293 300 294 265 234 257 43 120 135 184 216 247 149 264 263 267 295 269 249 276 240 247 261 262 279 256 254 259 269 277 237 238 263 247 236 216 209 236 245 240 233 261 256 178 183 228 243 209 199 248 258 149 143 150 145 140 133 132 133 122 129 143 130 100 119 138 141
349 350 353 355 354 349 344 339 336 331 329 334 338 325 271 270 272 272 271 269 283 297 283 273 272 252 254 65 144 165 190 204 319 209 195 241 270 305 301 253 267 240 228 237 240 253 235 236 251 245 260 259 248 253 248 241 229 212 219 249 265 252 262 260 160 173 210 236 248 227 235 257 158 149 155 153 150 144 144 147 142 147 148 135 126 175 185 170
349 350 352 354 354 349 343 339 337 332 331 336 337 321 286 274 271 274 271 269 282 286 266 260 276 284 166 170 208 247 84 101 43 208 184 198 243 260 264 266 276 251 231 218 213 235 221 212 242 237 221 230 241 247 253 268 261 253 244 256 268 265 267 262 228 201 203 219 254 251 249 255 171 154 161 168 160 150 151 154 153 152 147 150 163 190 196 175
348 350 352 353 353 349 343 339 335 334 334 338 337 322 294 275 273 268 258 255 248 258 279 241 243 285 84 122 309 32 57 85 157 208 204 221 218 225 240 254 257 249 246 218 202 214 210 210 231 246 232 218 241 243 244 339 306 301 309 277 261 261 265 266 261 226 189 210 246 249 251 263 229 169 163 166 163 157 155 154 156 156 157 172 179 195 194 169
348 350 351 351 352 350 345 339 336 335 332 334 334 321 294 278 265 238 241 246 240 256 299 291 249 290 317 123 57 81 117 192 220 222 209 193 222 244 236 231 236 241 247 222 195 195 229 248 235 237 245 266 315 294 330 8 325 313 306 286 276 266 262 266 269 257 216 253 265 268 266 265 266 221 174 163 168 167 157 157 164 165 165 171 185 209 193 163
348 349 350 351 350 349 344 340 340 336 331 328 321 313 353 5 334 340 323 270 258 269 285 296 304 302 323 344 325 316 208 206 208 204 111 196 236 257 227 218 236 235 254 287 13 31 239 254 258 281 329 331 321 329 1 348 315 301 290 294 306 282 270 274 261 224 200 254 284 291 287 277 277 269 213 169 173 172 160 164 169 168 167 160 177 206 185 156
347 348 350 348 349 348 342 339 344 341 339 328 308 320 27 12 344 332 327 290 286 279 258 279 298 274 292 303 294 283 237 219 181 173 164 252 250 259 232 231 253 235 239 288 253 226 208 241 276 310 351 329 305 331 344 318 302 292 281 285 285 277 286 287 261 208 198 230 265 268 273 273 272 273 256 195 179 171 165 169 165 160 162 155 171 206 184 150
345 347 348 347 348 346 339 337 344 335 333 328 330 17 8 351 346 328 303 281 286 264 233 231 249 234 194 230 235 208 242 246 201 169 151 248 262 276 269 270 295 305 210 220 212 249 243 240 336 2 355 309 295 308 313 299 284 270 272 276 274 276 281 278 277 271 271 296 301 290 288 283 276 268 260 238 190 165 161 162 157 156 161 164 168 173 166 140
344 347 346 347 346 343 337 320 308 307 305 310 359 30 355 343 351 333 311 275 273 241 223 218 233 247 207 152 176 211 253 278 244 140 131 251 286 312 278 291 309 277 249 221 186 274 275 118 60 3 326 298 290 265 233 254 261 242 244 257 272 287 290 293 304 297 285 288 291 289 286 277 276 265 254 243 155 144 147 145 146 151 155 162 160 147 159 180
344 347 346 347 346 343 331 303 306 330 311 304 9 21 351 347 350 335 322 270 264 210 202 206 212 254 178 120 178 233 261 260 243 95 123 269 304 296 285 316 276 273 318 344 180 268 293 79 65 290 282 270 271 269 263 285 292 262 250 271 295 296 287 283 288 297 292 276 274 277 280 274 272 270 264 252 134 136 144 144 144 147 142 151 165 150 164 177
342 344 348 348 346 341 323 302 338 329 311 327 18 1 343 346 347 334 315 257 259 165 164 183 178 190 168 172 203 233 255 230 178 121 140 298 308 285 284 255 228 266 343 344 279 272 276 94 131 271 289 281 265 277 285 292 311 294 271 285 299 290 283 278 271 279 278 270 276 277 279 284 282 285 289 287 207 134 134 144 147 130 114 173 184 150 161 172
341 342 345 349 350 346 335 328 329 317 315 9 1 339 339 344 341 332 297 252 249 165 155 164 159 176 185 183 205 233 268 130 155 179 186 211 246 262 266 256 246 210 21 304 265 254 228 200 197 218 264 287 275 264 260 263 287 296 307 322 303 295 297 305 294 274 275 280 277 265 265 270 271 277 279 277 261 156 139 153 156 142 178 219 179 140 187 212
340 339 340 346 351 343 332 326 320 316 347 3 340 331 340 336 327 314 278 268 228 157 164 152 121 183 211 189 216 254 313 128 211 206 160 179 247 266 263 276 297 301 126 278 271 137 227 260 277 233 243 246 257 275 291 302 278 263 298 314 318 320 306 300 290 275 278 280 271 263 265 268 262 261 257 271 272 197 149 155 159 157 182 189 161 156 184 232
339 338 335 339 348 345 333 324 304 295 325 338 332 330 328 321 314 278 268 278 198 169 186 147 139 193 221 222 217 244 272 231 225 158 159 210 245 257 277 298 308 301 251 260 280 297 267 292 345 355 286 261 296 329 329 314 304 298 315 309 311 310 287 276 272 272 275 268 267 267 263 261 267 267 258 281 299 243 144 154 159 161 182 175 163 173 172 187
335 335 331 332 344 350 327 306 280 287 314 325 327 325 314 303 283 244 243 262 219 156 129 145 199 194 202 229 220 213 240 233 209 193 215 234 207 214 262 271 282 299 291 261 262 263 246 207 240 266 258 281 310 322 310 298 304 319 319 300 289 280 268 262 259 265 270 261 261 266 267 267 265 266 257 254 271 253 168 162 163 168 181 169 161 175 174 183
329 330 326 322 324 324 308 291 302 322 321 326 327 317 296 270 242 257 245 235 269 165 154 178 209 194 196 225 227 199 223 236 212 208 228 228 201 206 235 226 223 263 268 257 249 256 251 215 201 194 185 256 294 295 283 274 274 279 281 282 284 277 267 267 264 261 267 270 271 273 283 285 268 267 282 247 218 253 226 158 169 181 176 171 167 178 183 186
325 320 313 308 303 293 281 289 328 326 317 325 325 301 275 246 225 244 232 205 214 184 220 220 190 203 211 224 235 209 220 238 203 194 234 242 220 217 229 219 213 241 253 264 277 286 276 254 249 204 156 178 271 281 272 255 245 243 248 262 274 277 279 274 269 263 257 261 298 313 319 303 270 278 301 274 205 218 226 159 180 194 179 180 181 184 188 186
322 313 306 302 290 281 277 289 306 310 313 317 308 272 260 251 235 242 242 240 209 137 293 280 222 225 221 223 243 230 223 246 206 191 226 252 256 250 239 225 225 266 315 304 288 281 256 240 239 229 178 131 202 271 273 264 259 252 257 269 275 279 285 278 274 277 267 261 327 325 317 293 265 265 312 303 221 189 191 177 195 187 182 196 191 189 195 192
320 308 303 296 279 280 284 281 283 297 309 297 271 245 242 247 253 258 262 263 196 158 194 256 250 241 231 233 247 237 228 247 243 228 223 236 261 272 257 240 237 262 279 266 274 282 277 265 235 230 182 107 188 266 287 309 304 283 277 274 263 266 270 273 280 288 286 287 292 285 279 282 279 219 281 327 20 80 189 185 201 180 184 201 191 185 193 196
324 312 305 294 280 284 283 262 264 279 285 266 247 238 231 240 253 251 265 317 76 205 245 244 243 242 239 241 246 248 260 249 231 243 249 241 252 261 261 269 267 238 248 259 250 248 271 284 293 249 114 138 232 268 288 292 280 274 279 267 255 267 266 265 276 284 297 300 281 258 246 267 243 169 194 209 77 346 205 159 168 178 180 191 181 177 185 193
329 319 292 271 260 255 239 235 239 236 246 250 238 236 233 241 257 259 278 340 2 309 288 253 234 243 246 237 235 236 233 233 230 243 261 263 264 257 252 264 256 207 230 271 282 263 266 271 106 123 171 194 229 266 270 251 269 289 274 272 287 291 274 272 273 269 279 281 271 262 261 271 241 167 38 327 184 180 184 185 213 213 190 198 201 189 185 190
330 315 283 266 239 184 188 205 204 206 233 246 235 245 254 252 263 276 314 23 11 328 289 263 237 238 250 242 233 227 199 208 241 244 258 257 252 256 257 265 255 199 211 245 268 288 276 259 190 213 239 221 194 265 271 250 267 283 268 293 325 276 258 272 283 272 270 268 262 266 269 278 275 247 345 328 252 184 200 216 220 226 215 209 208 201 200 192
319 306 285 266 200 152 185 189 192 210 228 242 243 253 264 268 272 280 311 42 5 296 272 267 253 234 252 258 245 233 212 220 245 237 250 253 225 238 262 268 256 216 251 259 247 285 291 282 277 254 246 220 133 199 270 247 237 249 271 306 306 274 262 252 269 280 277 275 277 285 287 295 305 285 319 304 293 238 245 235 225 249 238 208 193 198 210 198
294 285 266 194 153 147 178 176 194 224 231 236 246 246 253 260 263 273 286 343 321 281 269 265 263 249 252 261 265 251 227 226 245 239 240 247 212 168 248 265 243 213 273 286 272 274 258 250 278 255 213 247 178 204 257 249 216 220 252 272 258 257 269 254 246 251 264 277 282 287 297 314 35 116 176 262 294 281 271 269 279 303 306 268 208 210 222 203
278 274 159 142 148 147 157 175 205 228 231 237 250 256 259 262 259 269 279 275 166 273 269 266 267 262 256 254 260 267 250 233 246 248 241 247 239 213 221 263 265 214 211 252 264 272 263 244 269 262 206 255 266 235 253 265 236 217 232 254 254 254 270 272 260 253 258 275 280 282 291 289 121 133 172 186 187 218 246 258 261 269 271 262 244 233 237 207
282 283 155 142 154 153 159 195 217 223 239 243 249 256 263 280 291 292 291 271 243 258 267 274 277 278 277 266 252 257 261 249 246 244 243 248 241 227 217 264 279 253 190 215 244 252 270 270 269 275 260 238 243 241 255 270 269 253 240 247 258 259 274 283 270 267 267 270 279 286 293 282 161 181 203 192 192 219 239 248 252 254 256 263 257 246 253 157
272 275 147 149 159 167 191 234 231 232 245 242 253 263 259 239 274 287 294 291 282 263 255 267 275 276 277 275 269 266 264 255 250 247 243 248 245 245 257 262 277 278 237 228 239 234 292 286 260 267 267 266 266 246 231 265 277 267 253 254 258 247 237 239 255 272 272 271 280 278 285 287 188 197 193 174 208 252 266 265 262 258 264 285 294 286 290 100
248 257 140 154 170 189 222 250 246 245 247 250 259 264 252 217 241 262 267 273 277 267 252 251 260 261 255 259 264 266 265 259 258 257 248 250 248 239 243 245 259 280 267 250 249 239 350 276 262 271 266 270 276 252 189 230 261 262 254 254 255 250 245 243 255 272 269 269 275 262 259 246 194 188 139 155 248 269 271 268 262 262 280 295 295 295 281 182
281 295 167 162 175 198 226 246 253 253 257 264 265 261 257 255 262 267 257 254 263 268 264 257 256 255 254 261 261 258 260 255 253 257 254 257 257 253 253 237 206 240 261 259 176 135 240 230 240 271 271 260 260 242 210 218 235 249 255 254 253 253 254 254 258 261 256 263 267 264 273 257 175 172 179 201 247 274 272 273 277 282 293 299 327 354 321 282
292 279 217 168 173 201 236 248 261 269 270 274 277 278 277 270 265 270 270 266 264 266 270 268 267 263 255 260 264 262 263 260 254 256 260 263 259 264 269 241 174 223 257 250 115 128 229 257 241 255 261 258 257 244 227 252 254 250 250 255 258 257 256 257 264 262 255 264 264 260 277 265 161 177 217 192 360 309 288 301 302 289 288 311 67 47 312 283
297 277 253 180 172 202 241 253 263 270 274 283 291 291 286 277 264 257 256 254 250 257 267 269 271 274 263 256 257 256 256 258 256 255 264 269 262 255 260 245 227 229 188 103 121 196 232 250 256 261 260 266 279 289 310 305 291 273 259 258 257 260 263 261 257 257 259 269 266 258 270 271 221 220 238 115 104 288 286 290 288 283 286 59 112 132 258 272
276 276 272 249 180 205 231 244 243 246 256 262 264 271 272 271 267 255 248 248 240 242 256 259 257 261 260 261 264 261 258 258 256 253 254 259 265 271 270 260 251 216 128 145 246 261 254 243 244 256 262 266 275 282 286 283 275 271 273 270 263 259 259 255 250 256 264 270 265 264 276 281 282 283 281 249 185 242 269 276 281 282 275 222 184 161 269 272
246 273 310 12 291 253 267 276 270 275 279 269 257 263 267 265 266 266 264 269 261 249 255 261 257 256 255 256 261 263 262 262 260 259 257 255 256 266 274 268 256 173 138 234 239 212 254 261 251 256 263 265 268 274 278 276 268 264 264 264 266 264 257 252 252 256 260 262 263 273 279 279 283 287 288 297 297 274 274 274 265 254 232 206 197 193 223 255
265 284 303 335 274 271 288 294 294 297 294 286 282 284 280 270 266 264 259 264 265 257 254 259 261 263 263 261 258 254 253 255 258 258 260 264 263 260 272 277 264 215 214 258 251 220 242 257 257 264 269 269 269 271 271 272 273 271 263 256 257 259 258 258 256 256 258 259 263 269 271 271 276 281 285 293 293 287 292 284 262 242 224 212 207 200 203 227
306 332 332 314 284 276 281 282 283 283 278 276 275 272 273 270 269 270 267 262 262 255 250 254 261 265 269 271 268 261 257 258 262 263 260 267 274 268 260 273 274 262 254 256 250 237 245 258 264 271 272 269 271 271 267 266 269 270 266 260 252 247 249 254 256 256 257 258 262 264 265 267 268 273 284 291 281 272 271 265 261 260 251 236 225 219 217 222
296 334 336 309 289 279 278 274 269 265 261 261 260 257 257 256 258 262 263 259 261 262 258 257 260 262 266 271 270 270 275 284 300 302 291 280 275 264 246 251 270 273 264 258 252 230 230 255 266 265 267 268 270 272 271 271 271 267 264 264 260 253 248 250 251 250 249 253 260 260 261 268 267 265 279 284 268 256 257 261 258 254 253 247 240 241 242 241
295 297 278 273 274 270 272 271 265 261 256 251 252 256 258 257 257 258 259 253 254 262 267 266 267 265 261 263 269 282 305 327 325 310 300 288 279 264 247 254 264 265 258 261 266 251 238 248 255 254 259 263 264 270 277 280 274 265 260 263 265 263 259 254 249 246 243 245 253 254 253 262 270 267 257 248 248 250 257 275 284 277 272 265 259 257 255 256
Height
816 814 812 810 808 806 804 802 800 798 796 795 793 792 791 790 788 787 786 785 785 784 783 782 781 780 779 779 778 777 775 775 774 772 772 772 771 771 771 770 770 770 770 769 768 767 764 763 762 761 762 761 760 758 754 750 747 753 763 774 774 768 762 752 745 740 739 737 735 731 728 735 736 733 732 737 748 755 765 776 778 778 779 780 783 785 786 790
816 814 811 810 808 805 804 802 800 798 796 795 793 792 790 789 788 786 786 785 784 784 783 782 781 780 779 778 778 777 775 775 773 771 771 772 772 771 771 771 770 770 769 769 767 764 762 760 758 759 760 761 758 755 755 749 749 759 764 771 770 761 750 739 736 732 735 739 737 733 730 732 737 742 741 747 758 759 771 782 781 784 786 786 787 789 790 791
816 814 811 809 807 805 804 802 800 798 796 795 793 791 790 788 787 786 785 784 784 783 782 782 781 779 779 778 777 777 776 774 772 771 772 772 772 772 772 771 771 770 769 769 767 763 760 757 754 756 760 761 756 753 755 749 751 758 762 770 763 750 742 735 735 735 735 737 739 737 730 732 740 745 748 753 759 762 772 779 783 789 788 787 789 792 793 791
816 814 811 809 807 805 803 801 800 798 796 794 792 791 789 787 786 785 784 784 783 783 782 782 781 779 779 778 778 777 775 775 773 771 772 772 772 772 771 771 770 770 769 768 766 763 760 757 753 754 759 761 754 750 754 750 752 755 757 765 754 743 744 738 737 737 735 738 741 738 732 741 748 748 751 755 759 765 770 771 778 786 785 785 788 792 794 792
816 813 811 808 806 804 802 801 799 797 796 793 792 790 788 787 785 785 784 783 783 782 782 781 780 779 778 777 778 777 777 781 776 770 773 772 772 772 771 771 770 769 768 767 765 761 760 757 754 755 760 761 755 753 755 747 747 754 753 753 746 742 746 739 735 735 736 741 742 740 739 746 751 753 756 759 765 767 766 768 773 779 782 782 784 790 792 792
816 813 810 808 805 804 802 800 798 797 795 793 792 790 788 786 785 784 783 783 782 782 782 781 780 779 778 777 777 777 779 783 774 770 773 772 772 772 771 770 769 768 767 767 762 759 759 757 757 761 761 761 756 754 754 744 743 756 754 746 743 742 743 738 734 735 739 744 743 742 741 742 750 758 759 763 770 767 763 766 771 777 781 780 782 788 791 793
815 812 810 807 805 803 801 800 798 796 795 793 791 789 788 786 785 784 783 783 782 782 781 781 780 779 778 777 776 776 776 775 769 771 773 772 773 771 770 769 768 768 766 765 760 757 758 758 760 760 760 760 756 751 749 744 743 755 757 747 745 743 740 738 736 737 740 744 741 737 738 743 755 760 760 765 769 766 765 766 771 780 785 784 785 788 793 797
814 812 809 807 804 802 801 799 798 796 795 793 791 789 788 786 785 785 783 783 782 782 782 780 780 778 778 777 776 775 773 771 769 772 772 772 772 770 770 768 766 766 764 763 758 755 756 758 758 755 760 757 750 748 745 747 748 755 757 747 743 744 740 738 739 740 741 741 738 736 740 747 754 756 761 768 768 766 767 769 774 785 794 795 792 791 795 802
814 812 809 807 804 802 800 799 797 796 795 793 792 789 788 787 785 785 784 783 782 782 781 780 780 778 778 776 775 777 773 770 770 772 772 772 771 770 770 766 764 763 760 759 756 754 755 757 754 751 757 753 748 746 743 755 757 752 751 743 741 742 739 739 741 741 741 739 736 739 745 749 750 754 764 766 766 769 768 771 776 785 798 803 799 798 801 804
814 811 809 806 804 802 800 799 797 796 795 793 791 790 788 787 786 785 784 783 782 782 781 780 780 778 778 776 776 779 773 768 770 771 771 772 771 770 768 765 764 761 757 756 755 754 753 754 750 747 752 752 751 747 745 756 753 744 745 743 742 743 739 740 742 741 740 738 737 741 746 750 749 754 768 767 762 768 771 775 778 783 797 804 804 807 808 804
813 811 809 806 804 802 800 799 797 796 795 793 791 790 789 787 786 785 784 783 782 781 781 779 779 779 778 775 776 777 771 768 769 769 771 771 770 769 766 765 764 762 757 755 755 754 755 753 748 749 755 753 752 750 748 747 746 745 746 747 747 746 744 741 742 742 741 743 738 739 745 751 753 756 766 766 762 767 772 777 780 783 793 801 808 813 812 807
813 810 808 806 804 802 800 799 797 796 794 793 792 790 789 788 786 785 784 783 781 781 780 778 779 779 777 775 773 773 769 768 769 768 769 770 769 768 766 766 764 762 760 756 754 755 756 754 751 756 756 753 754 755 750 742 746 750 749 756 754 749 749 743 742 742 743 745 734 737 751 755 758 761 762 762 763 767 771 777 781 785 791 799 805 809 810 807
813 810 808 806 804 802 800 799 797 795 794 793 791 790 789 788 786 786 784 783 782 780 779 778 777 777 779 776 769 769 768 767 769 768 768 768 768 766 766 766 764 763 761 759 757 756 757 755 754 756 753 753 756 752 747 743 749 754 751 759 759 756 755 744 741 742 742 742 730 741 765 765 763 763 760 760 763 768 774 778 781 786 790 795 799 803 805 803
812 810 808 805 803 802 800 798 797 795 793 792 791 790 789 787 787 786 784 783 781 780 779 777 777 777 779 774 767 768 768 767 768 767 767 767 765 764 764 764 764 762 761 760 759 757 758 756 754 755 751 752 752 747 749 751 752 756 756 758 761 765 758 739 738 744 745 741 731 748 769 768 766 763 759 761 763 769 776 779 781 784 787 791 796 800 800 799
812 810 807 805 803 801 800 798 797 795 793 792 790 789 788 787 787 785 784 782 780 780 778 777 776 776 776 771 766 766 767 766 766 765 765 765 764 762 760 762 761 760 760 760 759 757 757 756 756 759 754 748 750 755 759 758 754 756 764 766 760 763 756 736 732 740 747 742 735 753 768 764 765 764 761 762 763 769 776 779 781 784 785 787 792 794 795 796
812 810 807 805 803 801 800 798 796 795 793 791 789 788 787 787 786 785 783 780 780 780 778 777 774 774 776 771 765 766 766 765 764 765 765 764 763 761 759 761 759 758 759 758 757 757 756 756 756 757 755 752 756 761 762 762 759 756 764 768 758 757 756 742 733 734 742 744 740 751 763 761 763 764 762 761 763 768 774 778 781 785 785 785 787 790 793 796
812 810 807 805 803 801 799 797 796 794 792 791 789 787 786 786 785 784 782 780 780 779 778 776 769 770 773 768 766 767 764 763 763 764 764 764 764 762 760 760 757 755 755 755 757 756 755 757 758 756 757 758 757 759 768 773 768 758 758 761 754 751 754 749 742 736 738 747 748 749 754 757 760 762 760 759 761 766 772 777 780 783 784 782 784 788 790 794
812 809 807 805 803 801 799 797 795 794 792 790 788 787 786 785 784 783 781 780 779 778 779 774 770 778 778 767 766 766 761 762 764 763 763 763 763 762 760 758 755 754 756 757 757 756 757 757 757 760 761 760 758 760 772 773 763 758 758 759 757 751 752 751 746 738 737 747 751 751 753 752 754 760 761 759 759 764 769 773 777 779 782 783 783 786 788 790
811 809 807 805 803 801 799 797 795 794 791 790 788 787 784 784 783 782 780 779 779 781 780 774 772 781 778 766 762 762 761 763 764 763 761 761 761 760 759 757 755 756 761 764 761 755 756 759 761 766 765 759 756 755 761 760 753 754 755 756 757 756 753 748 742 734 733 747 752 752 756 752 751 756 759 759 759 762 765 769 776 778 781 783 784 784 785 788
811 809 807 805 803 801 799 797 795 793 791 789 788 786 785 785 785 782 779 777 775 773 771 767 765 768 767 761 759 761 763 764 763 760 759 759 759 758 757 756 756 758 760 762 761 752 753 766 768 765 761 754 752 748 749 753 752 754 756 753 752 755 754 745 740 731 729 748 754 749 753 752 748 748 750 756 759 760 763 767 773 777 780 783 785 785 785 787
811 809 807 805 803 801 799 797 795 794 792 790 788 787 787 788 790 788 783 776 767 762 765 763 761 763 763 761 759 760 763 763 760 757 759 758 757 760 758 754 760 764 757 753 757 754 757 772 768 756 753 751 752 750 749 755 756 758 759 758 756 755 750 742 740 736 734 750 759 753 756 755 749 745 743 751 756 757 760 764 769 774 779 783 785 786 785 786
811 809 807 805 803 801 799 797 796 794 792 790 788 787 786 788 790 788 786 783 770 761 764 763 762 763 760 761 760 760 763 764 761 757 758 758 758 761 758 755 761 761 755 755 760 763 767 771 762 752 752 754 753 751 754 759 760 762 760 763 765 756 750 745 739 737 737 748 758 755 756 755 749 744 740 744 750 753 756 759 765 772 777 781 784 786 786 787
812 808 807 805 802 801 799 797 796 794 792 790 788 788 788 789 789 786 787 789 778 764 762 764 765 764 761 762 759 760 764 764 763 759 755 758 758 757 758 759 759 756 757 760 764 771 772 767 757 752 756 758 758 756 760 763 762 764 763 766 766 754 755 758 748 741 740 745 753 755 755 754 749 745 740 737 740 748 755 759 763 769 775 778 781 784 785 787
812 809 808 805 802 801 798 797 795 793 793 790 789 790 790 790 789 789 787 787 781 767 760 760 761 761 760 760 758 762 765 759 758 758 754 759 760 757 758 760 761 761 760 756 760 768 766 758 754 758 760 761 764 761 760 765 764 761 760 762 762 754 755 759 753 749 747 749 754 759 767 762 753 752 744 736 741 751 759 764 767 769 772 775 778 783 786 788
812 810 808 805 803 800 798 798 794 793 792 789 790 791 791 791 789 790 789 790 784 768 759 759 759 759 755 758 760 760 762 759 756 756 753 756 760 760 759 757 761 767 762 756 761 765 761 754 755 762 764 762 765 763 758 762 763 760 755 754 755 756 757 757 757 760 766 770 761 762 783 777 756 752 746 739 748 760 763 767 773 775 776 778 780 783 787 789
812 811 808 807 804 800 798 796 794 795 791 789 791 791 792 791 790 791 791 796 789 769 764 764 762 762 758 760 760 756 766 764 753 753 755 757 757 759 764 760 758 763 761 758 762 762 758 756 759 764 765 763 764 765 759 758 767 769 756 749 753 755 756 755 758 768 781 782 763 760 786 789 767 757 749 743 751 766 772 772 775 779 783 785 783 784 786 789
812 810 809 808 805 802 800 797 797 795 791 792 793 792 793 791 791 791 796 809 798 770 766 766 762 763 760 758 756 761 776 768 754 754 754 758 757 756 765 763 758 761 757 761 771 767 758 758 761 762 765 768 768 767 757 753 770 773 752 748 755 755 758 759 761 770 773 770 765 760 770 784 780 765 754 748 750 764 777 779 778 783 790 792 789 787 788 790
812 810 809 808 806 806 803 801 800 795 794 795 793 793 793 791 792 791 805 823 799 763 762 763 758 759 756 756 756 762 768 762 765 763 750 755 758 756 766 763 761 763 755 766 780 768 756 760 762 761 766 770 766 761 752 750 765 764 751 754 758 757 762 764 767 771 766 771 782 770 764 782 784 762 752 752 751 761 774 778 779 784 788 790 791 791 792 795
812 810 809 808 807 806 804 804 801 797 797 795 795 795 792 792 793 793 812 821 786 757 759 759 759 761 758 759 761 762 761 759 767 762 750 756 757 758 767 762 760 763 756 763 773 764 757 758 759 762 768 766 759 755 754 758 761 754 752 760 760 761 764 765 770 771 769 783 792 776 768 785 786 765 757 761 763 769 775 773 775 779 779 779 783 788 792 798
811 810 809 807 806 806 805 803 800 798 798 796 797 795 792 794 795 807 825 811 775 759 758 759 763 762 763 767 766 764 763 761 760 757 756 758 756 757 761 757 759 765 762 762 765 761 755 752 755 761 764 762 759 758 757 760 759 755 760 765 765 765 762 763 765 766 779 794 788 772 766 778 787 772 760 763 764 768 771 771 773 775 775 774 776 781 784 788
810 809 809 807 807 807 805 802 799 799 798 797 797 794 795 796 798 818 822 788 769 768 760 761 764 759 764 771 769 765 765 760 754 760 765 762 762 764 762 763 766 771 772 768 764 759 753 754 756 755 756 758 763 764 760 758 757 761 767 770 776 775 768 770 770 772 795 802 781 767 764 775 788 775 758 755 754 756 761 767 771 771 772 772 773 775 776 778
809 808 807 806 806 806 804 800 798 800 799 797 797 794 799 805 807 813 798 771 776 779 763 762 763 760 763 766 766 763 762 759 752 759 767 765 767 766 765 768 769 778 784 775 769 766 761 758 754 752 752 756 766 772 766 759 757 762 767 773 787 792 788 794 792 790 801 797 777 769 771 780 782 769 759 755 751 752 754 759 765 766 769 770 771 772 771 773
807 806 805 804 804 803 802 800 799 801 799 798 799 795 802 817 813 796 779 771 777 773 761 762 759 758 763 765 764 758 757 759 754 758 763 763 766 764 760 758 756 771 784 777 776 776 770 759 751 753 754 753 765 775 775 767 761 764 768 776 791 801 809 815 807 801 800 789 778 775 781 786 777 765 763 756 749 750 751 754 758 761 765 766 767 769 770 771
805 804 803 802 801 800 799 800 800 800 800 799 800 800 811 823 807 782 774 769 765 762 762 763 761 761 763 764 761 754 758 762 754 758 763 764 770 767 760 756 750 759 772 777 778 778 783 776 757 754 757 757 763 767 769 768 766 766 762 768 784 793 807 815 808 806 803 790 783 784 789 790 780 769 761 752 748 749 751 753 753 756 761 762 763 765 767 769
803 802 801 799 799 798 797 799 799 800 801 799 800 806 816 818 797 780 774 765 762 765 762 760 763 768 767 762 757 752 757 763 756 759 765 764 769 767 762 759 754 756 769 779 777 773 784 781 758 750 754 758 764 761 757 766 775 768 759 766 778 777 786 799 798 794 796 797 792 785 782 773 765 762 755 753 754 752 752 753 754 757 758 759 763 764 766 768
802 800 800 798 797 797 797 799 799 800 800 799 805 810 807 798 785 775 768 762 766 769 767 767 768 773 774 766 761 756 756 760 761 765 767 762 763 762 759 757 753 756 766 775 774 772 781 778 759 755 758 755 760 759 755 766 776 770 768 774 770 763 772 790 795 786 791 807 798 781 778 765 756 762 759 757 759 755 755 756 755 757 757 760 763 764 766 768
802 800 799 796 795 796 797 798 798 800 799 799 808 807 793 782 773 766 761 761 767 767 773 781 775 774 777 771 766 762 760 763 764 768 771 766 764 761 756 753 750 753 759 766 771 768 775 778 761 755 762 753 749 757 756 758 765 771 776 771 762 763 768 780 797 797 798 807 793 776 777 773 772 779 770 761 761 758 756 755 755 756 756 759 762 762 763 765
803 801 798 794 794 795 796 798 798 798 798 801 806 801 789 780 770 762 759 762 768 770 776 785 777 769 773 774 770 763 764 772 770 769 772 769 766 761 757 756 751 750 752 757 767 765 768 783 769 751 758 753 746 761 768 758 756 764 767 760 764 782 785 784 797 806 808 808 796 781 776 775 781 785 777 769 765 761 757 754 755 756 754 755 758 760 760 761
804 801 796 793 794 795 795 797 797 796 800 804 805 796 785 778 769 761 758 760 769 775 779 781 775 770 770 772 772 764 764 772 770 769 773 770 768 763 757 757 754 753 754 755 764 764 765 786 784 757 751 756 754 765 776 768 756 757 761 759 763 775 781 782 787 794 804 809 802 793 786 783 782 775 772 771 764 761 760 755 756 757 754 753 755 757 758 758
801 799 795 792 794 795 795 796 796 798 801 801 797 789 779 773 765 757 754 760 769 777 779 777 774 774 771 768 770 767 764 767 767 770 772 767 769 766 756 756 755 753 756 758 763 765 764 778 786 767 755 765 770 767 768 767 760 762 770 771 769 767 768 775 778 777 788 801 801 798 797 788 775 764 764 765 760 759 758 756 756 755 753 753 752 754 756 756
800 798 794 792 794 794 794 797 797 796 797 794 789 783 776 771 767 760 756 758 764 770 773 774 773 774 772 770 771 768 766 768 767 769 770 765 768 768 757 753 755 752 756 762 764 767 769 775 784 780 770 773 771 758 753 756 756 762 770 771 772 773 776 790 795 779 776 790 793 796 802 787 765 758 758 757 757 756 753 753 754 752 751 751 750 750 752 753
800 798 793 791 793 793 793 797 794 790 791 789 781 775 772 771 770 766 762 760 763 766 769 772 773 773 775 774 772 769 769 770 768 768 769 765 765 765 756 750 752 750 755 763 762 761 766 773 781 783 776 769 758 747 749 753 752 756 762 762 764 769 777 796 805 789 781 788 785 790 803 787 759 751 752 752 753 752 750 751 751 751 751 750 749 749 749 752
797 793 790 790 791 791 795 798 793 788 786 780 771 767 767 768 767 766 766 767 768 768 769 771 772 772 772 772 772 772 772 773 771 766 765 764 759 756 752 748 751 753 756 760 760 759 766 776 785 784 773 762 752 745 747 751 754 760 761 758 760 764 766 774 779 777 783 788 784 792 802 785 760 751 750 752 752 750 749 748 749 751 750 750 752 751 751 752
793 789 787 789 790 790 795 799 795 789 783 775 769 767 764 763 764 765 767 769 769 769 770 770 768 768 769 768 769 770 771 775 774 765 763 764 757 750 746 745 751 758 759 758 760 765 773 780 788 793 790 780 769 762 759 757 760 765 763 758 758 758 758 762 762 767 780 781 778 789 792 775 760 753 749 750 750 750 749 747 748 751 751 753 753 754 756 754
794 790 784 785 789 790 791 790 788 787 783 777 774 772 768 765 763 763 765 766 767 768 770 768 764 763 765 767 769 768 768 773 775 769 764 763 756 749 746 747 752 757 757 756 756 764 775 780 783 795 802 798 788 779 775 768 763 763 763 760 759 756 757 763 766 774 782 776 771 779 779 766 757 754 752 752 751 752 751 748 750 750 750 753 753 757 765 761
795 792 786 783 785 787 787 782 782 785 783 783 783 778 776 773 766 761 763 766 767 766 768 767 763 763 765 767 771 771 768 769 772 771 769 766 759 752 748 748 750 753 755 758 757 761 772 778 779 784 788 786 780 773 768 767 767 769 767 763 761 759 756 761 771 779 778 773 771 768 763 761 759 755 756 757 754 754 753 750 751 750 749 753 754 756 763 763
797 793 787 786 786 786 784 780 779 781 780 782 784 779 776 775 769 763 761 762 763 764 767 766 764 768 770 770 772 773 771 769 770 770 770 767 761 755 750 748 748 752 754 757 758 763 773 778 776 777 778 774 770 766 762 764 768 770 769 767 764 761 759 763 773 772 767 774 777 762 753 760 759 751 752 754 751 752 751 749 750 750 749 752 753 754 757 758
795 790 783 786 790 788 785 780 776 775 776 776 776 775 776 775 772 769 765 761 760 761 767 770 767 766 766 767 772 775 775 775 775 771 768 765 762 761 758 752 750 754 757 757 756 763 775 779 773 772 775 770 765 763 761 762 763 761 765 768 766 763 763 765 768 764 762 772 773 759 755 760 755 748 748 747 746 747 747 745 746 747 748 750 751 752 754 755
791 788 784 785 789 787 785 782 778 778 778 776 775 776 778 777 774 770 766 765 765 763 768 775 773 766 762 762 766 771 774 778 779 774 769 767 765 765 769 767 759 755 758 760 757 759 771 777 771 771 775 770 765 764 760 760 761 760 760 762 762 763 763 762 761 759 759 762 760 755 757 756 750 746 744 741 741 742 741 742 742 743 745 746 748 750 751 753
794 794 792 791 790 787 785 783 782 783 780 778 779 779 777 777 776 770 764 766 771 768 766 772 772 766 765 763 764 766 765 766 771 771 767 769 770 769 775 777 770 761 761 763 762 761 770 776 770 772 779 775 767 764 760 758 761 762 759 755 754 757 759 759 759 758 758 759 755 753 757 754 745 740 739 739 739 739 741 742 741 741 742 742 744 745 746 747
797 797 798 799 796 790 788 784 782 784 782 779 779 776 774 774 773 770 765 761 764 766 764 766 768 767 766 766 765 765 760 759 766 767 763 766 768 768 771 773 771 771 769 767 765 765 772 778 774 777 787 782 770 766 761 756 759 763 760 754 751 751 753 755 755 754 756 758 757 757 758 753 742 736 738 740 739 740 742 741 739 740 739 739 740 741 741 740
798 798 797 800 799 793 790 787 782 783 781 776 773 771 770 768 764 765 767 760 756 759 759 759 764 767 768 768 766 764 761 761 764 763 761 761 761 761 765 766 766 770 772 771 770 767 772 778 778 783 791 785 771 766 761 762 772 772 760 752 749 747 747 749 748 747 747 750 756 758 753 745 737 735 738 739 738 739 739 737 738 738 736 737 737 737 737 737